This is the latest recevied weather packets stored in our database for station/object KD8JAM. If no packets are shown the sender has not sent any weather packets the latest 10 day(s).
| Time | Temp. | Humidity | Pressure | Rain* | Wind** | Luminosity | Snow |
|---|---|---|---|---|---|---|---|
| 1777773206 | 3.33° C | 67% | 1011.8 hPa | 0 mm | - | 0 W/m² | - |
| 1777772901 | 3.33° C | 68% | 1012 hPa | 0 mm | - | 0 W/m² | - |
| 1777772599 | 3.33° C | 67% | 1012 hPa | 0 mm | - | 0 W/m² | - |
| 1777772296 | 3.33° C | 67% | 1011.9 hPa | 0 mm | - | 0 W/m² | - |
| 1777771994 | 3.33° C | 66% | 1011.9 hPa | 0 mm | - | 0 W/m² | - |
| 1777771691 | 3.33° C | 66% | 1012 hPa | 0 mm | - | 0 W/m² | - |
| 1777771388 | 3.33° C | 65% | 1012 hPa | 0 mm | - | 0 W/m² | - |
| 1777771084 | 3.33° C | 65% | 1012.2 hPa | 0 mm | - | 0 W/m² | - |
| 1777770782 | 3.89° C | 64% | 1012 hPa | 0 mm | - | 0 W/m² | - |
| 1777770478 | 3.89° C | 64% | 1012.1 hPa | 0 mm | - | 0 W/m² | - |
| 1777770175 | 3.89° C | 64% | 1012.2 hPa | 0 mm | - | 1 W/m² | - |
| 1777769872 | 3.89° C | 62% | 1012.3 hPa | 0 mm | - | 4 W/m² | - |
| 1777769569 | 3.89° C | 62% | 1012.4 hPa | 0 mm | - | 4 W/m² | - |
| 1777769265 | 4.44° C | 61% | 1012.4 hPa | 0 mm | - | 6 W/m² | - |
| 1777768964 | 4.44° C | 60% | 1012.5 hPa | 0 mm | - | 9 W/m² | - |
| 1777768660 | 5° C | 59% | 1012.4 hPa | 0 mm | - | 10 W/m² | - |
| 1777768357 | 5° C | 59% | 1012.4 hPa | 0 mm | - | 13 W/m² | - |
| 1777768054 | 5.56° C | 57% | 1012.5 hPa | 0 mm | - | 16 W/m² | - |
| 1777767751 | 5.56° C | 56% | 1012.4 hPa | 0 mm | - | 26 W/m² | - |
| 1777767447 | 5.56° C | 55% | 1012.6 hPa | 0 mm | - | 42 W/m² | - |
| 1777767144 | 5.56° C | 54% | 1012.7 hPa | 0 mm | - | 42 W/m² | - |
| 1777766842 | 5.56° C | 55% | 1012.8 hPa | 0 mm | - | 38 W/m² | - |
| 1777766539 | 6.11° C | 57% | 1012.5 hPa | 0 mm | - | 39 W/m² | - |
| 1777766236 | 6.11° C | 56% | 1012.7 hPa | 0 mm | - | 40 W/m² | - |
| 1777765934 | 6.67° C | 54% | 1012.7 hPa | 0 mm | - | 43 W/m² | - |
* Rain latest hour (hover to see other rain measurements)
** Current wind speed in m/s (hover to see current wind gust speed)